Flag for U.S.A. Weather past 2 weeks in Independence, Missouri, U.S.A.

Now
63 °F

Passing clouds.


Feels Like: 63 °F
Forecast: 56 / 66 °F
Wind: 3 mph from Southwest

Location: Lee's Summit Municipal Airport

Current Time: May 30, 2015 at 4:06:50 AM

Latest Report: May 30, 2015 at 3:02 AM


Visibility: 8 mi

Pressure: 29.97 "Hg

Humidity: 93%

Dew point: 61 °F

Location of IndependenceLocation

Historic Weather in Independence — Graph

°F

Independence temperature yesterday

Maximum temperature yesterday: 70 °F (at 10:53 AM)
Minimum temperature yesterday: 63 °F (at 1:53 AM)
Average temperature yesterday: 66 °F

Past Weeks' High & Low Weather Summary

 TemperatureHumidityPressure
High82 °F (May 27, 4:53 PM)97% (May 24, 6:53 AM)30.33 "Hg (May 24, 6:53 AM)
Low45 °F (May 19, 5:53 AM)33% (May 27, 3:53 PM)29.71 "Hg (May 17, 3:53 AM)
Average64 °F77%30.02 "Hg
* Reported May 15 2:53 AM — May 30 2:53 AM, Independence, Weather by CustomWeather, © 2015

Note: Actual official high and low records may vary slightly from our data, if they occured in-between our weather recording intervals... More about our weather records

Advertising

Independence weather history for previous 24 hours

 ConditionsComfort  
Time TempWeatherWind HumidityBarometerVisibility
2:53 AM
Sat, May 30
63 °FPassing clouds.3 mph93%29.95 "Hg9 mi
1:53 AM63 °FPassing clouds.3 mph93%29.96 "Hg10 mi
12:53 AM64 °FClear.5 mph94%29.96 "Hg10 mi
11:53 PM
Fri, May 29
64 °FPassing clouds.3 mph94%29.98 "Hg10 mi
10:53 PM65 °FMostly cloudy.No wind94%29.99 "Hg10 mi
9:53 PM65 °FClear.3 mph97%29.97 "Hg10 mi
8:53 PM66 °FSunny.No wind93%29.95 "Hg10 mi
7:53 PM68 °FScattered clouds.3 mph90%29.93 "Hg10 mi
6:53 PM69 °FScattered clouds.7 mph87%29.94 "Hg10 mi
5:53 PM68 °FPartly sunny.7 mph87%29.96 "Hg10 mi
4:53 PM68 °FLight rain. Overcast.7 mph93%29.94 "Hg10 mi
3:53 PM68 °FLight rain. Mostly cloudy.8 mph90%29.98 "Hg10 mi
2:53 PM69 °FLight rain. Overcast.5 mph90%29.98 "Hg10 mi
1:53 PM67 °FLight rain. Mostly cloudy.5 mph93%29.99 "Hg9 mi
12:53 PM68 °FLight rain. Overcast.7 mph90%30.01 "Hg7 mi
11:53 AM68 °FLight rain. Overcast.10 mph87%30.00 "Hg10 mi
10:53 AM70 °FScattered clouds.10 mph79%29.98 "Hg10 mi
9:53 AM68 °FMostly cloudy.12 mph82%29.98 "Hg10 mi
8:53 AM66 °FMostly cloudy.9 mph87%29.97 "Hg10 mi
7:53 AM65 °FLight rain. Overcast.8 mph91%29.97 "Hg10 mi
6:53 AM65 °FHeavy rain. Fog.12 mph97%29.98 "Hg4 mi
5:53 AM64 °FFog.3 mph97%29.95 "Hg6 mi
4:53 AM64 °FFog.5 mph97%29.93 "Hg1 mi
Weather by CustomWeather, © 2015

See weather overviewHow to use our weather pages